[[{"header":{"parameterUnit":"m.s-1","parameterCategory":1,"la1":30.2991,"la2":30.254,"lo1":-89.0895,"lo2":-89.0444,"dy":0.0017,"dx":0.0017,"nx":28,"ny":28,"refTime":"2025-06-17T03:00:00:Z","depth":0,"parameterNumber":2,"parameterNumberName":"U-component_of_WINDS"},"data":[0,0,0,0,0,0,0,0,0,0,0,0,0,0,0,0,0,0,0,0,0,0,0,0,0,0,0,0,0,0,0,0,0,0,0,0,0,0,0,0,0,0,0,0,0,0,0,0,0,0,0,0,0,0,0,0,0,0,0.159,0.159,0,0.1563,0.1563,0.1563,0.1516,0.1515,0.1514,0.1513,0.1486,0.1487,0.1487,0,0,0,0,0,0,0,0,0,0,0,0,0,0.1603,0.1603,0.159,0.159,0.159,0.1563,0.1563,0.1562,0.1516,0.1515,0.1514,0.1513,0.1486,0.1487,0.1487,0,0,0,0,0,0,0,0,0,0,0,0,0,0.1589,0.1603,0.159,0.1563,0.156,0.1563,0.1563,0.1562,0.1516,0.1515,0.1514,0.1512,0.1486,0.1487,0.1487,0.1514,0,0,0.1487,0.1487,0,0,0,0,0,0,0,0,0.1589,0.1588,0.1567,0.1565,0.1562,0.1541,0.1557,0.1546,0.1516,0.1533,0.1513,0.1512,0.1506,0.1504,0.1502,0.1513,0.1512,0.1487,0.1487,0.1487,0.1487,0,0,0,0,0,0,0,0.159,0.1589,0.1579,0.1567,0.1564,0.1553,0.1549,0.1555,0.1527,0.1531,0.1528,0.1525,0.1504,0.1502,0.1501,0.1511,0.1487,0.1487,0.1487,0.1488,0.1543,0.1544,0,0,0,0,0,0,0.1595,0.159,0.158,0.1579,0.1573,0.1553,0.155,0.1549,0.1527,0.1522,0.1527,0.1523,0.1503,0.1501,0.15,0.153,0.1487,0.1488,0.1488,0.1541,0.1543,0.1544,0,0,0,0,0,0,0.1596,0.1595,0.1581,0.1583,0.1581,0.1555,0.1555,0.155,0.1547,0.1523,0.1518,0.153,0.1501,0.15,0.1511,0.1529,0.1488,0.1488,0.154,0.1542,0.1544,0.1591,0,0,0,0,0,0,0.1596,0.1595,0.1605,0.1584,0.1581,0.1593,0.1556,0.155,0.1548,0.1543,0.1525,0.152,0.15,0.1511,0.1511,0.1528,0.1488,0.1538,0.1541,0.1543,0.1588,0.1595,0.1601,0,0,0,0,0,0.1597,0.162,0.1606,0.1605,0.1593,0.1594,0.1592,0.1568,0.1549,0.1559,0.1544,0.1521,0.1527,0.1512,0.1512,0.153,0.1537,0.154,0.1543,0.1585,0.1594,0.16,0,0,0,0,0,0,0.1644,0.1617,0.1601,0.1618,0.1608,0.1586,0.1597,0.1578,0.1573,0.1569,0.154,0.1536,0.1551,0.1541,0.1526,0.1555,0.1528,0.1531,0.1561,0.1568,0.1574,0.1576,0.1488,0,0,0,0,0,0.1657,0.1659,0.1635,0.1653,0.1649,0.1624,0.1624,0.1606,0.1595,0.1591,0.1576,0.1567,0.1566,0.1567,0.1565,0.1587,0.1582,0.1599,0.1605,0.161,0.1613,0.1623,0.163,0.1555,0.1555,0.1555,0,0,0.1682,0.1668,0.1671,0.1662,0.1652,0.1656,0.1621,0.1626,0.1629,0.1592,0.1601,0.159,0.1578,0.1594,0.16,0.1586,0.1633,0.1614,0.1618,0.1618,0.1627,0.1635,0.1641,0.1557,0.1556,0.1556,0,0,0.1731,0.172,0.1733,0.1724,0.1711,0.1694,0.1697,0.1678,0.1669,0.1677,0.165,0.1652,0.1653,0.1645,0.1641,0.1687,0.1665,0.1687,0.1719,0.173,0.1736,0.1741,0.1757,0.1763,0.169,0.169,0.169,0,0.1765,0.1769,0.1742,0.1749,0.1746,0.1713,0.1726,0.1719,0.1705,0.1704,0.1688,0.1687,0.1677,0.169,0.1702,0.17,0.1702,0.1689,0.1737,0.1742,0.1746,0.1761,0.1767,0.1693,0.1693,0.1692,0.1692,0,0.1811,0.1814,0.1826,0.1813,0.1812,0.1822,0.1797,0.1799,0.1781,0.1766,0.1776,0.1762,0.1757,0.1759,0.1742,0.177,0.1762,0.1742,0.1715,0.1757,0.177,0.1776,0.1697,0.1696,0.1695,0.1694,0,0,0.1888,0.1861,0.1866,0.1859,0.1842,0.1844,0.1853,0.1847,0.1849,0.1841,0.1847,0.1848,0.183,0.1825,0.1807,0.1817,0.1853,0.1796,0.1795,0.1806,0.1883,0.1898,0.1905,0.1839,0.184,0.1841,0.1884,0,0.1932,0.1945,0.1922,0.194,0.1943,0.1911,0.1919,0.1909,0.1895,0.1896,0.1881,0.1882,0.1858,0.1855,0.1863,0.1847,0.1868,0.1844,0.1845,0.1845,0.1848,0.1912,0.1927,0.1968,0.1889,0.189,0.1891,0,0.1985,0.198,0.1998,0.1979,0.198,0.1987,0.198,0.1981,0.1969,0.1959,0.1954,0.1933,0.194,0.1914,0.1923,0.1907,0.1906,0.1899,0.19,0.1899,0.187,0.1912,0.1981,0.1987,0.1899,0.1898,0.1897,0,0.2039,0.2036,0.2047,0.2043,0.2021,0.2027,0.2018,0.2005,0.2003,0.1998,0.1996,0.1991,0.1989,0.1986,0.1964,0.1947,0.1976,0.1948,0.1967,0.1968,0.1975,0.1974,0.2044,0.1975,0.1975,0.1975,0.1975,0,0.2091,0.2103,0.2071,0.2077,0.209,0.2064,0.2078,0.2066,0.2055,0.2058,0.2031,0.2035,0.2006,0.2008,0.1991,0.2001,0.2,0.1992,0.1987,0.1994,0.1995,0.1993,0.1989,0.1976,0.1976,0.1976,0.1976,0,0.2153,0.2132,0.2141,0.212,0.2115,0.2125,0.2107,0.2113,0.2097,0.2103,0.2102,0.2079,0.2078,0.2057,0.2052,0.2041,0.2058,0.2048,0.2062,0.2059,0.2079,0.2077,0.2149,0.2157,0.2084,0.2084,0.2085,0,0.2187,0.2196,0.2176,0.2176,0.2169,0.217,0.2168,0.2142,0.2141,0.2129,0.2135,0.2133,0.213,0.2131,0.2113,0.211,0.2099,0.2125,0.2099,0.2105,0.2099,0.2099,0.2099,0.213,0.2131,0.2132,0.2133,0,0.2249,0.2238,0.2236,0.2231,0.2229,0.2224,0.2217,0.2219,0.2191,0.2191,0.219,0.2188,0.2183,0.2181,0.2174,0.2165,0.2144,0.2141,0.2145,0.2152,0.2159,0.2155,0.2076,0.2139,0.2139,0.2138,0.2138,0.2138,0.2298,0.2304,0.2291,0.229,0.2282,0.2276,0.2279,0.2265,0.2264,0.2258,0.2243,0.2245,0.2233,0.2221,0.2214,0.2215,0.2202,0.2209,0.221,0.2212,0.2216,0.216,0.2214,0.2214,0.2214,0.2213,0.2213,0,0.2358,0.2348,0.2348,0.2338,0.2337,0.2318,0.2309,0.2309,0.2311,0.2302,0.2299,0.2298,0.2296,0.2279,0.2275,0.2279,0.2269,0.2279,0.2278,0.2276,0.2228,0.2224,0.2287,0.2287,0.2287,0.2286,0.2286,0.2286,0.239,0.2399,0.2387,0.2392,0.2382,0.2383,0.238,0.2374,0.2366,0.2367,0.2365,0.2354,0.2341,0.2336,0.2333,0.2328,0.2327,0.234,0.2332,0.2287,0.2279,0.2273,0.2269,0.234,0.234,0.238,0.238,0.238]},{"header":{"parameterUnit":"m.s-1","parameterCategory":1,"la1":30.2991,"la2":30.254,"lo1":-89.0895,"lo2":-89.0444,"dy":0.0017,"dx":0.0017,"nx":28,"ny":28,"refTime":"2025-06-17T03:00:00:Z","depth":0,"parameterNumber":3,"parameterNumberName":"V-component_of_WINDS"},"data":[0,0,0,0,0,0,0,0,0,0,0,0,0,0,0,0,0,0,0,0,0,0,0,0,0,0,0,0,0,0,0,0,0,0,0,0,0,0,0,0,0,0,0,0,0,0,0,0,0,0,0,0,0,0,0,0,0,0,3.8822,3.8823,0,3.893,3.8931,3.8932,3.8908,3.8906,3.8904,3.8902,3.901,3.9015,3.9019,0,0,0,0,0,0,0,0,0,0,0,0,0,3.859,3.8595,3.8822,3.8823,3.8825,3.893,3.8931,3.8933,3.8909,3.8906,3.8904,3.8901,3.9008,3.9014,3.902,0,0,0,0,0,0,0,0,0,0,0,0,0,3.8694,3.8596,3.8822,3.8825,3.8827,3.893,3.8931,3.8933,3.8909,3.8906,3.8903,3.89,3.9007,3.9014,3.9021,3.9126,0,0,3.9042,3.9045,0,0,0,0,0,0,0,0,3.8688,3.8702,3.8823,3.8825,3.8827,3.8903,3.8889,3.8998,3.891,3.8878,3.8902,3.8899,3.8977,3.8986,3.9013,3.9131,3.9135,3.9043,3.9047,3.905,3.9052,0,0,0,0,0,0,0,3.8681,3.8698,3.8864,3.8825,3.8827,3.882,3.8832,3.891,3.8943,3.888,3.8879,3.8892,3.8977,3.9006,3.9015,3.9137,3.9043,3.9049,3.9054,3.9056,3.9344,3.9347,0,0,0,0,0,0,3.8673,3.8692,3.8861,3.8868,3.8749,3.8827,3.8839,3.8881,3.8942,3.8948,3.8895,3.8891,3.8995,3.9007,3.9019,3.9145,3.905,3.9057,3.9061,3.9341,3.9345,3.9349,0,0,0,0,0,0,3.8668,3.8688,3.8857,3.878,3.88,3.8834,3.8881,3.8885,3.8914,3.8953,3.8958,3.8919,3.8993,3.9009,3.9099,3.9148,3.906,3.9067,3.9337,3.9342,3.9347,3.9398,0,0,0,0,0,0,3.8661,3.8687,3.8728,3.8781,3.8805,3.8936,3.8884,3.8889,3.8927,3.8923,3.8977,3.8983,3.8992,3.9089,3.9106,3.9156,3.9072,3.9333,3.9339,3.9345,3.9392,3.9404,3.9414,0,0,0,0,0,3.8653,3.8738,3.873,3.8751,3.8857,3.8939,3.8953,3.8963,3.8931,3.8972,3.8996,3.8981,3.914,3.9098,3.9118,3.9171,3.933,3.9337,3.9345,3.9387,3.9402,3.9414,0,0,0,0,0,0,3.8689,3.8745,3.8737,3.8841,3.8886,3.8935,3.8987,3.8979,3.9033,3.9026,3.9036,3.9048,3.914,3.9164,3.9116,3.9275,3.923,3.9242,3.9255,3.927,3.9281,3.9272,3.9078,0,0,0,0,0,3.8709,3.8772,3.8817,3.8905,3.8928,3.8954,3.899,3.8994,3.904,3.9059,3.909,3.9134,3.9194,3.9233,3.9291,3.9395,3.9406,3.9441,3.9453,3.9462,3.9471,3.9527,3.9543,3.9374,3.9373,3.9373,0,0,3.8751,3.8789,3.8829,3.8913,3.8948,3.9012,3.897,3.9039,3.9086,3.9069,3.9156,3.918,3.923,3.9328,3.9373,3.9351,3.9521,3.9471,3.9478,3.9483,3.9536,3.9552,3.9567,3.9379,3.9378,3.9377,0,0,3.886,3.8896,3.8973,3.9008,3.9062,3.9079,3.9097,3.9148,3.9163,3.9251,3.9239,3.9294,3.9398,3.9433,3.9465,3.9586,3.9573,3.9605,3.9663,3.9717,3.973,3.9742,3.9784,3.9799,3.9615,3.9615,3.9615,0,3.8906,3.9003,3.9013,3.9083,3.912,3.9108,3.9184,3.9218,3.9287,3.9312,3.9288,3.9416,3.9449,3.9554,3.9584,3.961,3.963,3.9598,3.9728,3.974,3.9751,3.9791,3.9807,3.9618,3.9618,3.9617,3.9617,0,3.9055,3.9122,3.9177,3.9245,3.9288,3.9361,3.938,3.9422,3.9422,3.9441,3.9529,3.9568,3.9633,3.9658,3.9659,3.9763,3.9748,3.9726,3.9681,3.9771,3.9808,3.9824,3.9623,3.9622,3.9621,3.962,0,0,3.919,3.9262,3.9282,3.9312,3.9369,3.9421,3.9493,3.9556,3.9591,3.9639,3.9699,3.9786,3.9766,3.9802,3.9806,3.9853,3.9945,3.9825,3.9826,3.9845,4.0061,4.0076,4.0094,3.9937,3.994,3.9942,4.0056,0,3.9303,3.9431,3.9442,3.9556,3.9617,3.9606,3.9668,3.9709,3.9728,3.9782,3.9802,3.9864,3.9833,3.9854,3.9901,3.9924,3.9988,3.9916,3.9991,3.9993,3.9978,4.0114,4.0131,4.0237,4.0071,4.0074,4.0075,0,3.9453,3.9506,3.9627,3.9674,3.9701,3.9757,3.9815,3.9867,3.9913,3.9923,3.9963,3.996,4.0032,3.9985,4.0084,4.0035,4.0066,4.0081,4.0086,4.0092,4.0039,4.0123,4.0271,4.0286,4.0099,4.0097,4.0095,0,3.9538,3.9639,3.9724,3.975,3.9809,3.9848,3.9874,3.9917,3.9954,4.0005,4.0028,4.0087,4.0118,4.0162,4.0175,4.014,4.0273,4.0227,4.0282,4.0282,4.031,4.0308,4.0463,4.0332,4.0331,4.0331,4.0331,0,3.9663,3.9737,3.9763,3.9815,3.9897,3.9908,3.9988,4.0011,4.0049,4.0105,4.0098,4.015,4.0164,4.0217,4.0228,4.0307,4.0321,4.033,4.0332,4.0331,4.0329,4.0351,4.0343,4.0335,4.0334,4.0333,4.0333,0,3.9772,3.9793,3.9884,3.9932,3.9945,4.0003,4.0043,4.0093,4.011,4.018,4.0197,4.0225,4.0288,4.0305,4.038,4.0387,4.0479,4.0475,4.0464,4.0464,4.0517,4.0512,4.0691,4.0715,4.0568,4.057,4.0571,0,3.985,3.9907,3.9961,3.9997,4.0025,4.0085,4.0123,4.0135,4.0174,4.023,4.0272,4.0334,4.0385,4.0485,4.0511,4.0568,4.0564,4.0623,4.0573,4.0569,4.0564,4.056,4.0565,4.0632,4.0634,4.0635,4.0636,0,3.9987,3.9994,4.0049,4.0108,4.0153,4.0199,4.0244,4.0274,4.0292,4.0336,4.0401,4.044,4.0517,4.0578,4.0635,4.066,4.0651,4.0652,4.0667,4.0666,4.0657,4.0662,4.0489,4.0648,4.0647,4.0646,4.0645,4.0645,4.0082,4.0131,4.0176,4.0237,4.0272,4.0314,4.0362,4.0386,4.044,4.0504,4.0507,4.0577,4.062,4.0696,4.0724,4.0778,4.076,4.0783,4.0788,4.0794,4.0798,4.065,4.0788,4.0788,4.0788,4.0788,4.0787,0,4.0217,4.0245,4.0301,4.0364,4.0411,4.0399,4.0448,4.0488,4.055,4.0591,4.064,4.0714,4.0773,4.0803,4.0861,4.0898,4.0895,4.0913,4.091,4.0915,4.0811,4.0791,4.0914,4.0914,4.0914,4.0914,4.0914,4.0914,4.0293,4.0375,4.0387,4.0485,4.0513,4.0582,4.061,4.0647,4.068,4.0763,4.0812,4.0831,4.0868,4.0928,4.0981,4.0989,4.101,4.103,4.1034,4.0936,4.0923,4.0911,4.0892,4.1034,4.1035,4.1134,4.1135,4.1136]}]]